Wind_Speed
22 22 21 19 19 19 21 22 24 23 23 25 26 27 25 21 19 17 16 14 13 14 12 9 5 4 4 3 1 2 2 1 4 11 11 13 16 15 11 11 12 13 15
23 21 21 21 21 21 21 20 22 21 23 24 21 21 21 18 15 11 8 7 6 5 5 4 4 4 5 8 8 8 10 8 9 15 15 12 9 13 13 14 16 17 14
24 21 19 20 21 23 23 22 19 18 17 18 19 22 20 17 14 14 13 10 9 8 7 6 7 7 8 10 11 13 11 12 13 12 14 13 15 16 18 19 21 21 20
24 25 22 22 22 27 24 22 21 20 20 17 17 21 21 18 18 16 14 12 13 13 13 12 13 12 11 13 15 16 17 17 18 19 21 21 23 25 20 21 21 23 26
24 23 22 23 23 24 27 24 20 17 22 17 19 27 24 22 19 19 18 18 19 18 19 20 19 19 19 20 22 21 22 23 23 26 25 25 29 29 27 28 27 30 32
24 21 21 21 21 21 20 25 24 19 16 16 18 22 27 26 27 30 28 26 27 27 26 26 25 26 29 29 27 26 27 28 30 31 31 31 29 31 33 35 36 38 43
31 31 29 25 22 22 25 27 28 27 27 25 25 27 27 29 29 30 32 33 33 32 31 32 34 34 34 34 32 31 32 31 33 34 35 35 35 35 37 38 42 45 46
44 38 35 31 29 30 27 29 32 32 32 33 31 35 36 36 38 38 37 36 37 37 36 36 37 38 37 37 38 40 39 39 41 40 40 42 44 42 43 46 48 51 53
49 42 36 38 43 38 37 36 32 31 30 36 45 37 44 42 42 40 40 41 41 43 43 43 43 44 44 44 46 46 47 46 46 45 44 46 48 50 52 54 56 57 58
51 48 37 36 38 46 51 43 40 43 41 37 42 41 43 46 48 47 46 46 45 44 44 47 48 49 48 45 44 45 46 47 48 50 52 53 54 57 60 62 63 65 64
58 56 46 44 38 36 44 53 47 43 41 47 48 52 50 49 49 50 49 48 49 50 49 51 51 50 49 50 50 52 53 56 57 59 61 62 64 66 67 69 72 73 72
68 68 58 48 35 42 38 43 54 50 40 57 55 55 53 54 54 55 53 53 54 55 56 55 56 58 57 57 59 60 62 65 66 67 68 70 70 73 75 78 79 81 85
74 74 67 68 48 50 43 41 43 50 54 57 59 61 62 63 64 66 64 66 64 63 62 62 63 65 65 66 68 69 70 71 73 76 77 79 81 83 85 88 89 91 95
81 77 71 72 68 65 65 61 66 69 62 68 68 70 72 72 74 77 76 73 69 67 69 69 68 70 74 75 76 78 81 83 84 85 87 89 90 92 95 98 100 102 103
89 86 78 77 73 70 72 72 67 70 73 74 72 76 78 76 79 80 81 73 70 69 70 72 73 74 76 78 82 85 86 87 89 91 95 97 100 102 105 106 108 110 112
95 93 90 87 85 74 82 82 80 77 82 80 81 82 82 83 85 82 83 79 79 79 81 80 81 84 87 91 93 96 98 99 101 104 105 107 108 109 112 114 115 118 120
96 94 96 97 96 92 87 82 86 91 89 88 84 86 87 89 87 86 89 88 89 88 91 92 96 99 103 103 106 105 106 106 108 109 112 116 118 120 121 121 125 127 131
98 95 95 101 101 101 99 98 93 90 91 91 92 95 96 93 91 94 97 102 105 104 107 110 110 112 114 114 116 115 117 119 120 121 122 124 126 128 132 135 137 140 140
106 104 101 102 104 105 105 104 102 103 104 104 104 103 104 103 101 104 108 111 111 112 114 115 115 118 119 116 119 118 121 124 126 127 129 134 139 141 143 142 143 146 147
106 107 109 106 108 111 116 111 109 108 105 106 108 109 111 111 112 114 118 118 118 121 122 122 121 124 125 126 128 132 134 135 136 137 139 140 145 144 146 149 149 149 149
123 119 118 116 115 114 117 115 113 114 115 115 115 115 117 119 121 121 122 121 124 123 124 124 127 132 133 132 136 137 140 142 143 143 148 144 143 147 150 149 153 155 154
133 132 131 129 126 124 123 123 125 123 124 123 122 123 123 123 126 128 129 130 131 129 128 127 132 134 134 138 139 140 141 141 145 146 144 148 151 151 151 151 152 149 143
112 124 126 130 132 130 132 130 132 133 132 131 132 132 132 132 132 133 136 138 133 134 135 135 137 139 139 139 139 141 140 140 141 144 144 142 144 141 132 128 124 120 118
87 95 100 103 107 112 119 120 120 121 124 128 127 128 128 124 124 126 130 129 123 129 129 128 126 128 130 125 128 134 134 132 133 129 120 117 115 115 113 111 108 106 105
83 83 86 88 92 98 98 97 96 97 98 98 98 101 108 107 104 102 103 105 107 115 115 112 113 117 120 119 118 113 109 109 108 107 107 107 105 104 103 101 101 103 105
54 56 58 61 64 71 80 87 89 89 87 85 85 84 84 86 88 91 94 96 98 102 103 102 100 98 97 97 95 94 94 95 96 96 97 96 96 98 99 102 103 103 102
Wind_Direction
175 170 174 180 176 174 165 164 157 157 157 158 154 152 155 147 144 139 136 134 126 124 122 115 113 140 138 141 211 198 171 283 3 355 357 357 13 12 19 9 5 353 356
179 179 184 190 182 182 176 174 169 165 164 167 165 160 164 163 161 163 161 160 163 177 189 196 197 218 245 258 287 295 303 301 306 321 314 326 328 333 350 352 344 346 354
179 178 184 186 186 189 185 182 183 180 183 187 186 186 188 189 197 200 208 208 214 226 228 243 262 272 289 299 305 312 304 291 303 306 312 327 318 308 316 326 327 327 330
188 188 188 192 191 187 192 189 185 189 191 197 209 207 204 205 209 210 223 233 237 241 246 252 269 281 282 293 291 285 280 281 287 301 294 301 307 308 307 310 315 320 320
192 193 191 194 196 196 198 202 205 228 229 243 241 221 219 216 222 229 239 249 256 260 265 269 274 279 281 286 291 286 282 279 280 289 291 297 293 298 301 308 301 308 310
207 212 218 214 212 212 216 219 230 239 238 245 240 229 229 239 247 246 250 253 255 260 267 274 274 276 282 283 282 283 283 279 279 283 286 289 293 297 294 301 300 302 304
217 221 224 227 229 233 239 240 241 249 252 249 246 242 243 247 250 252 251 254 262 264 269 273 275 278 278 279 277 282 285 281 278 280 281 283 284 286 293 296 297 299 302
230 218 221 228 240 251 244 247 251 253 254 259 253 252 252 256 256 258 256 259 264 269 272 271 272 274 276 275 274 280 282 279 279 284 286 288 289 288 292 296 297 298 301
220 222 220 229 244 256 264 268 247 246 266 271 256 250 257 254 257 261 261 266 271 271 270 271 272 274 277 278 277 277 279 280 281 281 284 285 285 285 287 292 295 297 297
220 222 218 233 239 254 250 251 260 262 259 257 260 248 255 261 263 266 267 268 269 272 264 261 265 268 271 273 273 276 276 276 277 279 282 284 285 286 288 290 291 292 292
225 228 227 231 235 245 241 240 246 243 246 243 247 250 249 255 262 262 263 264 264 265 268 270 270 270 271 273 274 273 274 277 280 281 281 282 284 286 286 288 290 292 294
227 232 223 223 231 245 244 230 235 239 232 248 249 252 252 255 260 261 263 264 264 264 264 267 270 271 271 272 274 276 277 278 278 279 280 282 285 287 289 290 291 293 294
230 232 231 226 228 234 232 228 224 232 235 239 245 249 252 257 259 260 263 267 266 268 268 269 270 271 274 276 277 279 280 280 280 282 283 284 287 289 291 291 291 292 293
228 230 235 231 232 232 241 239 240 242 244 249 254 256 257 261 265 267 270 270 268 270 272 272 273 274 275 277 279 280 281 281 283 284 286 289 289 290 291 292 292 293 293
226 230 233 233 235 239 236 237 239 243 249 251 255 261 263 267 269 269 266 264 266 270 269 272 272 274 276 277 281 283 282 282 284 284 287 289 289 290 290 291 292 294 295
228 232 233 231 232 236 240 242 244 242 250 256 261 261 261 264 267 267 265 267 269 271 268 269 271 274 280 283 284 285 286 286 286 287 288 290 290 290 291 291 292 293 295
226 229 232 234 234 235 237 244 248 251 252 256 255 259 262 263 261 261 262 265 267 268 272 274 276 279 284 285 288 285 285 288 288 289 290 291 291 292 292 292 293 294 294
227 228 232 234 237 240 240 242 241 245 250 252 255 259 260 262 263 263 268 271 272 275 277 279 280 282 284 287 288 289 288 290 292 291 290 290 292 292 293 293 293 294 295
232 233 235 236 238 240 243 246 248 250 252 254 256 259 262 264 264 266 267 268 272 275 276 278 281 281 283 284 285 287 286 287 288 288 289 289 290 291 293 294 293 293 294
232 234 235 240 245 244 244 247 249 251 254 256 259 261 262 263 266 268 270 272 274 275 276 276 278 279 281 282 283 284 285 284 286 288 289 289 292 292 291 293 294 293 293
241 241 242 243 243 245 245 247 249 251 254 255 258 260 262 265 267 270 273 273 274 276 277 280 279 280 282 283 282 284 284 285 287 288 288 291 289 291 294 291 291 296 295
242 241 240 238 241 243 245 249 251 252 254 257 259 261 263 265 267 269 271 272 274 275 277 278 280 282 283 282 283 284 285 287 287 289 289 290 292 293 292 292 293 293 293
242 243 245 245 246 250 252 252 253 255 257 259 261 263 266 267 268 269 270 270 272 273 275 277 278 279 281 283 283 285 286 286 287 285 291 291 291 293 293 293 293 292 293
242 243 242 243 246 249 251 251 253 255 257 258 261 263 264 264 266 268 270 272 274 274 278 279 280 280 282 284 282 283 286 285 285 287 289 289 290 291 291 293 293 293 294
244 245 244 245 247 248 248 250 252 253 255 258 260 261 263 266 269 272 275 274 274 274 278 279 281 281 283 284 284 285 286 286 288 290 290 291 292 292 294 295 296 297 297
236 236 238 242 246 246 246 248 252 256 261 264 266 268 269 270 272 274 276 277 277 278 280 281 282 282 282 285 287 287 289 290 290 290 291 291 292 294 295 296 296 297 298
Height
10963 10965 10967 10970 10971 10971 10974 10976 10979 10982 10984 10988 10989 10991 10993 10995 10997 10998 10999 11000 11001 11002 11003 11003 11005 11006 11007 11007 11008 11007 11006 11004 11003 11002 11001 11001 10999 10999 10998 10999 10998 10997 10997
10960 10963 10965 10969 10971 10972 10973 10977 10980 10983 10985 10988 10989 10992 10994 10996 10998 11001 11002 11002 11003 11003 11004 11005 11005 11006 11007 11007 11007 11007 11005 11004 11003 11001 11001 11001 11001 10999 10998 10997 10996 10995 10994
10957 10961 10966 10968 10971 10975 10975 10977 10980 10983 10986 10988 10991 10993 10996 10998 11000 11002 11004 11003 11003 11004 11004 11004 11005 11005 11005 11005 11005 11004 11004 11003 11001 11000 11000 10999 10999 10997 10996 10994 10993 10992 10992
10957 10958 10962 10967 10970 10973 10976 10978 10980 10983 10985 10988 10991 10993 10996 10998 11000 11001 11002 11002 11003 11003 11002 11003 11003 11003 11002 11001 11001 11001 11001 11000 10999 10998 10997 10996 10994 10993 10992 10990 10989 10988 10987
10954 10958 10960 10964 10968 10972 10974 10977 10979 10981 10983 10984 10987 10990 10992 10994 10996 10997 10998 10998 10998 10999 10999 10998 10998 10998 10997 10996 10996 10996 10996 10996 10994 10993 10992 10991 10989 10987 10985 10984 10983 10982 10981
10951 10955 10958 10961 10965 10968 10971 10973 10976 10978 10980 10981 10983 10984 10987 10988 10990 10991 10992 10993 10993 10994 10994 10993 10993 10992 10992 10991 10991 10989 10988 10988 10987 10986 10984 10983 10982 10980 10977 10976 10975 10973 10972
10945 10948 10952 10955 10958 10961 10964 10967 10969 10972 10976 10977 10978 10979 10981 10982 10984 10985 10985 10985 10986 10987 10987 10986 10986 10985 10985 10984 10983 10982 10981 10980 10978 10977 10977 10976 10974 10972 10971 10969 10967 10964 10962
10937 10940 10943 10948 10952 10954 10956 10960 10964 10965 10967 10969 10972 10973 10974 10975 10975 10976 10977 10977 10977 10978 10978 10978 10977 10977 10976 10976 10974 10973 10971 10970 10969 10968 10966 10965 10963 10961 10960 10959 10956 10953 10950
10925 10931 10935 10938 10946 10948 10952 10954 10956 10957 10958 10961 10962 10962 10964 10966 10965 10966 10968 10969 10968 10968 10968 10967 10967 10967 10967 10966 10965 10963 10961 10959 10958 10957 10955 10954 10952 10950 10948 10946 10943 10941 10937
10916 10919 10925 10928 10931 10935 10941 10948 10948 10947 10948 10950 10951 10952 10955 10956 10956 10957 10958 10959 10959 10959 10958 10958 10957 10956 10956 10955 10954 10952 10950 10948 10947 10945 10943 10941 10939 10936 10933 10930 10927 10924 10921
10904 10911 10916 10920 10923 10925 10931 10934 10938 10937 10936 10937 10937 10941 10942 10944 10946 10946 10946 10946 10947 10947 10947 10946 10945 10943 10943 10942 10941 10941 10939 10936 10934 10931 10929 10927 10924 10921 10917 10914 10909 10905 10901
10891 10896 10904 10907 10909 10913 10918 10922 10925 10924 10927 10923 10926 10927 10929 10931 10932 10933 10933 10933 10933 10934 10933 10933 10932 10930 10929 10928 10926 10925 10923 10920 10917 10915 10912 10909 10907 10903 10900 10895 10891 10887 10881
10873 10879 10888 10893 10898 10900 10904 10906 10908 10909 10907 10909 10912 10913 10914 10916 10918 10919 10920 10921 10920 10920 10919 10918 10917 10916 10914 10912 10911 10909 10906 10904 10901 10898 10895 10892 10889 10884 10879 10874 10870 10864 10859
10856 10861 10869 10875 10879 10884 10889 10892 10894 10892 10892 10895 10897 10898 10899 10901 10901 10902 10903 10903 10904 10904 10903 10902 10901 10899 10897 10894 10892 10889 10886 10884 10880 10877 10875 10871 10866 10861 10855 10849 10843 10837 10830
10842 10843 10851 10857 10860 10867 10872 10874 10876 10877 10880 10881 10883 10884 10884 10885 10886 10885 10885 10886 10886 10886 10885 10883 10882 10880 10878 10875 10873 10870 10865 10862 10859 10855 10851 10847 10842 10836 10830 10824 10816 10809 10802
10822 10826 10832 10836 10842 10848 10851 10855 10856 10860 10862 10864 10866 10867 10868 10869 10868 10868 10868 10867 10866 10866 10864 10861 10860 10857 10854 10851 10848 10845 10842 10839 10835 10831 10826 10821 10814 10807 10801 10795 10789 10781 10773
10800 10806 10811 10815 10820 10826 10831 10834 10835 10836 10841 10843 10846 10849 10849 10850 10849 10849 10848 10847 10845 10844 10842 10839 10836 10832 10829 10826 10823 10820 10817 10813 10809 10805 10800 10793 10784 10776 10771 10764 10757 10749 10741
10780 10786 10791 10795 10799 10803 10808 10810 10814 10814 10819 10821 10824 10825 10826 10828 10829 10828 10826 10825 10823 10820 10817 10815 10812 10810 10805 10801 10795 10791 10789 10786 10780 10774 10768 10761 10752 10744 10736 10730 10724 10714 10705
10761 10767 10771 10776 10779 10783 10785 10789 10795 10799 10801 10801 10802 10802 10802 10802 10804 10804 10804 10801 10797 10795 10795 10792 10789 10783 10780 10774 10770 10766 10761 10755 10749 10743 10736 10728 10721 10711 10704 10693 10684 10675 10666
10740 10744 10750 10755 10759 10764 10767 10768 10772 10775 10778 10779 10780 10782 10783 10782 10781 10780 10777 10775 10771 10767 10765 10766 10762 10756 10751 10747 10744 10737 10732 10726 10719 10714 10703 10693 10686 10676 10666 10657 10647 10636 10626
10715 10722 10727 10731 10737 10742 10743 10746 10749 10753 10756 10758 10758 10760 10760 10760 10755 10754 10749 10744 10745 10744 10741 10737 10731 10726 10722 10715 10713 10705 10702 10697 10687 10679 10671 10663 10648 10641 10629 10619 10606 10599 10588
10687 10695 10701 10705 10712 10718 10721 10724 10729 10732 10733 10732 10733 10733 10733 10735 10730 10726 10723 10722 10720 10719 10714 10706 10699 10696 10692 10684 10679 10674 10667 10660 10650 10643 10632 10621 10613 10600 10587 10577 10569 10557 10547
10662 10671 10676 10682 10686 10690 10697 10697 10700 10704 10705 10708 10707 10709 10708 10706 10703 10701 10698 10698 10694 10692 10688 10682 10677 10671 10664 10655 10647 10641 10631 10623 10617 10607 10598 10585 10575 10566 10551 10540 10530 10521 10511
10637 10644 10650 10655 10659 10664 10668 10671 10674 10676 10680 10682 10683 10683 10685 10679 10676 10675 10675 10672 10666 10661 10659 10655 10649 10641 10638 10625 10619 10612 10600 10592 10585 10575 10564 10556 10549 10537 10525 10514 10502 10492 10482
10615 10621 10626 10632 10637 10641 10645 10647 10648 10651 10653 10658 10660 10659 10657 10655 10653 10651 10648 10644 10639 10635 10630 10624 10618 10611 10603 10595 10589 10580 10570 10561 10553 10544 10534 10526 10517 10506 10498 10486 10475 10463 10451
10592 10599 10605 10610 10615 10618 10622 10626 10629 10631 10634 10636 10636 10635 10635 10633 10630 10627 10623 10617 10612 10609 10603 10596 10590 10581 10573 10567 10558 10551 10544 10535 10526 10518 10509 10500 10491 10481 10470 10460 10448 10437 10425